Location: Hiekkapohja
(62.3333°N, 25.7833°E)
Time: 19:48:21
(UTC+00:00)

Cosmos 1777 Rocket - Pass Details

Date: 07 August 2020
Orbit: 758 x 775 km, 74.0° (Epoch: 28 September)

Event Time Altitude Azimuth Distance (km) Brightness Sun altitude
Exits shadow 00:48:47 - 212° (SSW) 2,520 6.0 -6.3°
Reaches altitude 10° 00:49:18 10° 212° (SSW) 2,321 5.8 -6.2°
Maximum altitude 00:54:35 88° 125° (SE) 785 4.1 -5.9°
Drops below altitude 10° 00:59:56 10° 36° (NE) 2,340 8.4 -5.5°
Sets 01:02:19 0° 36° (NE) 3,271 10.3 -5.3°
